[[{"header":{"parameterUnit":"m.s-1","parameterCategory":1,"la1":30.2991,"la2":30.254,"lo1":-89.0895,"lo2":-89.0444,"dy":0.0017,"dx":0.0017,"nx":28,"ny":28,"refTime":"2024-05-01T09:00:00:Z","depth":0,"parameterNumber":2,"parameterNumberName":"U-component_of_WINDS"},"data":[0,0,0,0,0,0,0,0,0,0,0,0,0,0,0,0,0,0,0,0,0,0,0,0,0,0,0,0,0,0,0,0,0,0,0,0,0,0,0,0,0,0,0,0,0,0,0,0,0,0,0,0,0,0,0,0,0,0,-2.872,-2.8721,0,-2.8806,-2.8807,-2.8808,-2.8811,-2.881,-2.8809,-2.8808,-2.8896,-2.8899,-2.8902,0,0,0,0,0,0,0,0,0,0,0,0,0,-2.8559,-2.8562,-2.872,-2.8721,-2.8722,-2.8806,-2.8807,-2.8808,-2.8811,-2.881,-2.8809,-2.8808,-2.8895,-2.8899,-2.8903,0,0,0,0,0,0,0,0,0,0,0,0,0,-2.8635,-2.8563,-2.872,-2.8734,-2.8736,-2.8806,-2.8807,-2.8809,-2.8812,-2.881,-2.8809,-2.8807,-2.8894,-2.8898,-2.8903,-2.8965,0,0,-2.8918,-2.892,0,0,0,0,0,0,0,0,-2.8631,-2.8641,-2.8731,-2.8733,-2.8736,-2.8796,-2.8783,-2.8861,-2.8812,-2.8783,-2.8808,-2.8806,-2.8864,-2.8871,-2.8891,-2.8969,-2.8973,-2.8919,-2.8922,-2.8924,-2.8925,0,0,0,0,0,0,0,-2.8626,-2.8638,-2.8754,-2.8732,-2.8735,-2.8736,-2.8745,-2.8797,-2.8831,-2.8785,-2.8786,-2.8796,-2.8865,-2.8886,-2.8893,-2.8974,-2.8919,-2.8923,-2.8926,-2.8928,-2.9107,-2.9108,0,0,0,0,0,0,-2.8618,-2.8633,-2.8751,-2.8757,-2.8678,-2.874,-2.875,-2.8778,-2.8831,-2.8837,-2.8797,-2.8796,-2.8878,-2.8887,-2.8896,-2.8971,-2.8924,-2.8929,-2.8931,-2.9105,-2.9107,-2.9109,0,0,0,0,0,0,-2.8614,-2.8628,-2.8748,-2.8695,-2.871,-2.8745,-2.8776,-2.8781,-2.8802,-2.8839,-2.8845,-2.8812,-2.8877,-2.8889,-2.8948,-2.8974,-2.8931,-2.8935,-2.9103,-2.9106,-2.9108,-2.9121,0,0,0,0,0,0,-2.861,-2.8627,-2.865,-2.8696,-2.8713,-2.8798,-2.8778,-2.8784,-2.881,-2.8809,-2.8855,-2.8861,-2.8877,-2.894,-2.8952,-2.898,-2.8939,-2.91,-2.9104,-2.9107,-2.9119,-2.9124,-2.9129,0,0,0,0,0,-2.8604,-2.8651,-2.8652,-2.8666,-2.8743,-2.8799,-2.8809,-2.8827,-2.8812,-2.8836,-2.8861,-2.886,-2.897,-2.8946,-2.896,-2.8989,-2.9099,-2.9103,-2.9107,-2.9116,-2.9123,-2.9129,0,0,0,0,0,0,-2.8608,-2.8657,-2.8658,-2.8721,-2.8756,-2.88,-2.883,-2.8833,-2.8873,-2.887,-2.889,-2.89,-2.8958,-2.898,-2.8953,-2.9052,-2.9033,-2.9039,-2.9035,-2.9042,-2.9047,-2.9039,-2.8943,0,0,0,0,0,-2.8616,-2.8657,-2.8698,-2.875,-2.8767,-2.8796,-2.8821,-2.8831,-2.8868,-2.8883,-2.8911,-2.8947,-2.899,-2.9017,-2.9058,-2.9122,-2.9132,-2.915,-2.9155,-2.9159,-2.9164,-2.9199,-2.9207,-2.9122,-2.9122,-2.9122,0,0,-2.8633,-2.8665,-2.869,-2.8751,-2.878,-2.8822,-2.8808,-2.8854,-2.8885,-2.889,-2.8946,-2.8969,-2.901,-2.9072,-2.91,-2.9092,-2.919,-2.9164,-2.9167,-2.917,-2.9204,-2.9212,-2.9219,-2.9125,-2.9124,-2.9124,0,0,-2.8686,-2.8715,-2.8761,-2.8789,-2.8832,-2.8851,-2.8862,-2.8906,-2.8921,-2.8978,-2.8983,-2.9021,-2.9094,-2.9123,-2.9147,-2.9212,-2.9212,-2.9225,-2.9251,-2.9285,-2.9292,-2.9298,-2.932,-2.9328,-2.9231,-2.9231,-2.9231,0,-2.8702,-2.8766,-2.8784,-2.8829,-2.8856,-2.8863,-2.8909,-2.8936,-2.8991,-2.9009,-2.8999,-2.909,-2.9119,-2.9187,-2.9203,-2.9223,-2.9236,-2.9219,-2.9289,-2.9295,-2.9301,-2.9323,-2.9331,-2.9232,-2.9232,-2.9231,-2.9231,0,-2.8783,-2.8827,-2.8859,-2.8911,-2.8942,-2.8988,-2.9013,-2.9042,-2.905,-2.907,-2.9128,-2.9163,-2.9211,-2.9228,-2.9237,-2.9298,-2.9291,-2.9285,-2.9266,-2.931,-2.9331,-2.9339,-2.9233,-2.9233,-2.9233,-2.9232,0,0,-2.8839,-2.8901,-2.8912,-2.8936,-2.8984,-2.9019,-2.9065,-2.9113,-2.9137,-2.9174,-2.9213,-2.9275,-2.927,-2.9298,-2.931,-2.934,-2.9388,-2.933,-2.9331,-2.9339,-2.9457,-2.946,-2.9469,-2.939,-2.9391,-2.9393,-2.9453,0,-2.8896,-2.8978,-2.8996,-2.9067,-2.9108,-2.9115,-2.9156,-2.919,-2.921,-2.9248,-2.9271,-2.9314,-2.9304,-2.9321,-2.9351,-2.9376,-2.9412,-2.9372,-2.9425,-2.9427,-2.9413,-2.948,-2.9484,-2.9539,-2.9461,-2.9463,-2.9464,0,-2.8973,-2.9013,-2.9087,-2.913,-2.9148,-2.9184,-2.9229,-2.9265,-2.9304,-2.9317,-2.9348,-2.9357,-2.9406,-2.9385,-2.9452,-2.9425,-2.9448,-2.9464,-2.9466,-2.9471,-2.9447,-2.9485,-2.9557,-2.9565,-2.9477,-2.9476,-2.9475,0,-2.9006,-2.9077,-2.9131,-2.9151,-2.9203,-2.9228,-2.9251,-2.9288,-2.9316,-2.9355,-2.9373,-2.9418,-2.9442,-2.9476,-2.9497,-2.9481,-2.9562,-2.9544,-2.9574,-2.9573,-2.9589,-2.9588,-2.9665,-2.9607,-2.9606,-2.9606,-2.9606,0,-2.9067,-2.9112,-2.9146,-2.9179,-2.923,-2.9251,-2.9301,-2.9324,-2.9357,-2.9395,-2.9405,-2.944,-2.9466,-2.9504,-2.9521,-2.9574,-2.9585,-2.9596,-2.96,-2.9595,-2.9593,-2.9609,-2.9605,-2.9608,-2.9608,-2.9608,-2.9607,0,-2.9111,-2.9136,-2.9195,-2.9239,-2.9251,-2.9287,-2.9325,-2.9357,-2.9378,-2.9425,-2.9438,-2.9471,-2.9517,-2.9541,-2.9599,-2.9611,-2.9669,-2.9672,-2.9656,-2.9657,-2.9685,-2.9682,-2.9774,-2.9787,-2.9721,-2.9722,-2.9722,0,-2.9147,-2.9182,-2.923,-2.9256,-2.9279,-2.9321,-2.9349,-2.9371,-2.94,-2.9447,-2.9474,-2.9521,-2.9559,-2.9633,-2.9662,-2.9706,-2.9708,-2.9738,-2.9715,-2.9709,-2.9708,-2.9705,-2.9708,-2.9741,-2.9742,-2.9742,-2.9743,0,-2.921,-2.922,-2.926,-2.9304,-2.9337,-2.9373,-2.9409,-2.9429,-2.9458,-2.9489,-2.9537,-2.9567,-2.9626,-2.9672,-2.9719,-2.9742,-2.9747,-2.975,-2.9759,-2.9753,-2.9742,-2.9748,-2.9665,-2.9747,-2.9747,-2.9747,-2.9746,-2.9746,-2.925,-2.9282,-2.932,-2.9364,-2.9393,-2.9426,-2.9459,-2.9484,-2.9524,-2.9573,-2.9585,-2.9634,-2.9673,-2.9736,-2.9761,-2.9801,-2.9795,-2.9808,-2.9811,-2.9814,-2.9814,-2.9737,-2.9809,-2.9809,-2.9809,-2.9809,-2.9809,0,-2.9312,-2.9338,-2.9378,-2.9427,-2.9462,-2.9464,-2.9504,-2.9532,-2.9576,-2.9612,-2.9649,-2.9704,-2.9749,-2.9782,-2.9827,-2.9853,-2.9856,-2.9864,-2.9861,-2.9867,-2.9818,-2.9805,-2.986,-2.986,-2.986,-2.986,-2.986,-2.986,-2.9348,-2.9401,-2.9416,-2.9484,-2.9509,-2.9558,-2.958,-2.9611,-2.9639,-2.9699,-2.9736,-2.9758,-2.9792,-2.9841,-2.9882,-2.9891,-2.9907,-2.9914,-2.9923,-2.9876,-2.987,-2.9865,-2.9853,-2.9918,-2.9918,-2.9969,-2.9969,-2.9969]},{"header":{"parameterUnit":"m.s-1","parameterCategory":1,"la1":30.2991,"la2":30.254,"lo1":-89.0895,"lo2":-89.0444,"dy":0.0017,"dx":0.0017,"nx":28,"ny":28,"refTime":"2024-05-01T09:00:00:Z","depth":0,"parameterNumber":3,"parameterNumberName":"V-component_of_WINDS"},"data":[0,0,0,0,0,0,0,0,0,0,0,0,0,0,0,0,0,0,0,0,0,0,0,0,0,0,0,0,0,0,0,0,0,0,0,0,0,0,0,0,0,0,0,0,0,0,0,0,0,0,0,0,0,0,0,0,0,0,5.2012,5.2012,0,5.2045,5.2045,5.2046,5.1965,5.1963,5.196,5.1958,5.1987,5.199,5.1994,0,0,0,0,0,0,0,0,0,0,0,0,0,5.1877,5.188,5.2012,5.2013,5.2013,5.2045,5.2045,5.2046,5.1966,5.1962,5.1959,5.1956,5.1986,5.199,5.1994,0,0,0,0,0,0,0,0,0,0,0,0,0,5.1925,5.1881,5.2012,5.1977,5.1974,5.2045,5.2045,5.2046,5.1966,5.1962,5.1959,5.1955,5.1985,5.199,5.1994,5.2099,0,0,5.2009,5.2011,0,0,0,0,0,0,0,0,5.1922,5.193,5.1982,5.1979,5.1976,5.1997,5.2008,5.2064,5.1967,5.1969,5.1958,5.1953,5.1993,5.1997,5.2012,5.2101,5.2102,5.2009,5.2012,5.2014,5.2015,0,0,0,0,0,0,0,5.1919,5.1928,5.2025,5.1982,5.1979,5.1958,5.1961,5.2018,5.2002,5.1969,5.1963,5.1968,5.1991,5.2007,5.2012,5.2103,5.2009,5.2013,5.2016,5.2018,5.228,5.2284,0,0,0,0,0,0,5.1921,5.1926,5.2024,5.2026,5.194,5.1964,5.1967,5.1994,5.2001,5.1999,5.1971,5.1964,5.2001,5.2006,5.2012,5.2136,5.2014,5.2018,5.2021,5.2276,5.2281,5.2286,0,0,0,0,0,0,5.1918,5.193,5.2022,5.1974,5.1985,5.197,5.2002,5.1997,5.2013,5.2003,5.1999,5.1991,5.1998,5.2006,5.2079,5.2136,5.2021,5.2025,5.2271,5.2278,5.2284,5.2385,0,0,0,0,0,0,5.1915,5.193,5.197,5.1976,5.1988,5.209,5.2005,5.2,5.2022,5.2013,5.2021,5.2018,5.1996,5.2072,5.2084,5.214,5.2029,5.2266,5.2274,5.2282,5.2376,5.2394,5.2409,0,0,0,0,0,5.191,5.1996,5.1973,5.1985,5.2038,5.2093,5.2099,5.2073,5.2027,5.2067,5.2061,5.2018,5.2128,5.208,5.2092,5.2152,5.2262,5.2272,5.2281,5.2369,5.239,5.2408,0,0,0,0,0,0,5.1996,5.1996,5.197,5.2061,5.2078,5.2079,5.2129,5.2096,5.2125,5.2116,5.208,5.2083,5.2163,5.2164,5.2111,5.2254,5.2187,5.2199,5.225,5.227,5.2286,5.2283,5.2033,0,0,0,0,0,5.2026,5.2072,5.2069,5.215,5.216,5.2143,5.2166,5.2145,5.216,5.2166,5.2165,5.2181,5.2219,5.2245,5.2279,5.2376,5.2377,5.2423,5.2439,5.2453,5.2463,5.2515,5.2536,5.2316,5.2316,5.2316,0,0,5.2087,5.2093,5.2124,5.2167,5.2177,5.2225,5.215,5.2203,5.2237,5.2174,5.2243,5.2244,5.2258,5.2344,5.2382,5.2348,5.2524,5.2465,5.2475,5.2479,5.2527,5.2548,5.2566,5.2323,5.2321,5.232,0,0,5.2223,5.2233,5.2301,5.2314,5.2331,5.232,5.2337,5.2344,5.2342,5.2412,5.2365,5.2405,5.2472,5.2485,5.25,5.2643,5.2605,5.2655,5.2739,5.279,5.2808,5.2823,5.2874,5.2892,5.2666,5.2666,5.2666,0,5.2296,5.2367,5.234,5.2397,5.2417,5.2364,5.2433,5.2446,5.2473,5.2488,5.245,5.2533,5.254,5.2628,5.2663,5.2677,5.2695,5.2654,5.2808,5.2822,5.2836,5.2884,5.2904,5.2672,5.2672,5.2671,5.267,0,5.2457,5.2507,5.256,5.259,5.2616,5.2679,5.266,5.269,5.2667,5.2659,5.2731,5.2737,5.2772,5.2792,5.2769,5.2877,5.2856,5.2814,5.2745,5.2864,5.2908,5.2926,5.2681,5.2679,5.2677,5.2675,0,0,5.2646,5.2662,5.2682,5.2695,5.2711,5.2749,5.2809,5.2845,5.2871,5.2892,5.2942,5.3,5.2962,5.2979,5.2957,5.3002,5.3115,5.2954,5.2954,5.2984,5.3235,5.3267,5.3288,5.3091,5.3094,5.3097,5.3234,0,5.278,5.2885,5.2863,5.2966,5.3011,5.2963,5.3015,5.303,5.3026,5.3063,5.3057,5.3099,5.3045,5.3055,5.3098,5.3093,5.3165,5.3083,5.3135,5.3137,5.3132,5.3312,5.3345,5.3474,5.3251,5.3254,5.3256,0,5.2951,5.2981,5.3089,5.3099,5.3117,5.3165,5.3196,5.3233,5.325,5.3243,5.3264,5.3234,5.3293,5.3225,5.3306,5.325,5.327,5.3271,5.3276,5.3279,5.3203,5.3319,5.3514,5.3533,5.3283,5.3281,5.3279,0,5.3078,5.3145,5.3218,5.3231,5.3245,5.328,5.3287,5.33,5.3323,5.3351,5.3365,5.3399,5.3417,5.3444,5.3423,5.3376,5.3507,5.3438,5.3502,5.3503,5.3531,5.353,5.3732,5.3546,5.3546,5.3545,5.3545,0,5.323,5.3298,5.3276,5.3321,5.3395,5.3369,5.3443,5.3444,5.3456,5.35,5.346,5.3501,5.3472,5.3511,5.3496,5.3565,5.3573,5.3569,5.3564,5.3572,5.3573,5.3584,5.3575,5.355,5.3549,5.3548,5.3547,0,5.3384,5.3372,5.3449,5.3457,5.346,5.3515,5.352,5.3562,5.3555,5.3611,5.3622,5.3611,5.3655,5.3638,5.3684,5.3674,5.3762,5.3745,5.3757,5.3753,5.3818,5.3812,5.4034,5.4062,5.3859,5.3861,5.3863,0,5.3481,5.3533,5.3547,5.3574,5.3585,5.3629,5.3653,5.363,5.3656,5.368,5.3719,5.376,5.3791,5.3864,5.3859,5.3894,5.3878,5.3953,5.3882,5.389,5.3878,5.3875,5.388,5.3967,5.3969,5.3971,5.3973,0,5.3656,5.3648,5.3685,5.3722,5.3752,5.3779,5.3802,5.3827,5.3804,5.3836,5.3882,5.3907,5.3955,5.3996,5.4028,5.4033,5.4,5.3995,5.4012,5.4021,5.4025,5.4024,5.3795,5.399,5.3988,5.3987,5.3986,5.3985,5.3784,5.3828,5.3845,5.3888,5.3904,5.3927,5.3966,5.3966,5.4004,5.4042,5.4026,5.4078,5.4094,5.4133,5.4144,5.4184,5.4155,5.4179,5.4185,5.4191,5.42,5.402,5.419,5.419,5.4189,5.4189,5.4188,0,5.3956,5.3965,5.4005,5.404,5.4074,5.4042,5.4066,5.4096,5.4144,5.4162,5.4194,5.4247,5.4287,5.4286,5.4323,5.4355,5.4341,5.4366,5.4363,5.4365,5.4224,5.4206,5.4377,5.4377,5.4377,5.4377,5.4377,5.4377,5.4049,5.4122,5.4116,5.4196,5.4204,5.4257,5.4273,5.4294,5.4309,5.437,5.4404,5.4403,5.4414,5.4452,5.4487,5.4485,5.45,5.4531,5.4524,5.4393,5.4374,5.4356,5.4339,5.4535,5.4535,5.4661,5.4662,5.4663]}]]